map of EIS home
EIS - Airport
Location
City:  Tortola, Beef Island, Tortola, Virgin Islands (British)
Near (Alt.):Road Town, Trellis Bay
Name:Terrance B. Lettsome International Airport
ICAO:TUPJ
IATA:EIS

Details
Type:Airport (Aerodrome, Airfield)
Use:Public/Civil, International (customs port of entry)
Latitude:1826'44"N (18.445556)
Longitude:6432'30"W (-64.541666)
Datum:WGS 1984
Elevation:16 ft (5 m)
Variation:13.83W (WMM2015v2 magnetic declination)
-0.03 annual change
Runways:1
Longest:4645 × 98 ft (1416 × 30 m), paved

Time
Time Zone:UTC-4
Local Time:

Weather
METAR:TUPJ 041400Z 12009KT 10SM FEW020 27/19 A3004 RMK Q1017
TAF:TUPJ 032300Z 0400/0424 10010KT 9999 SCT020

Related Locations
Nearby:
Farthest:BWB: 12263 mi / 19736 km
Barrow Island, WA, AU

Find:

   beyond  
but within

Other Information
Maps:
NOTAMs:
Links:
Sources:

  
  • flag of Virgin Islands (British)
  

Sectional Chart

Flight Planning
at skyvector.com

Satellite Image

Google Maps Satellite view

 

Copyright © 2004-2019 Karl L. Swartz. All rights reserved.
The Great Circle Mapper name and logo are trademarks of the Great Circle Mapper.
All other trademarks mentioned herein belong to their respective owners.
Please see credits for attibutions and further copyright information.

  Follow gcmap on Facebook Follow gcmap on Twitter GCmap on LinkedIn

hCard Microformat

Geo Microformat